Theta_e
311 311 311 311 311 311 311 312 312 313 313 313 314 315 315 315 315 315 315 315 316 316 316 317 317 318 318 318 318 319 319 319 320 320 321 321 321 320 320 319 318 317
309 309 309 309 309 309 309 309 310 310 310 310 310 311 311 311 311 312 312 313 313 314 314 315 315 316 316 316 317 317 317 317 317 318 318 318 319 319 319 319 319 318
308 308 308 308 308 308 308 308 308 308 308 308 308 308 308 309 309 309 310 310 311 311 312 313 313 314 314 314 315 315 315 315 316 316 316 316 316 317 317 318 318 318
308 308 308 308 307 308 308 308 307 307 307 307 307 307 307 308 308 308 308 308 309 309 310 310 311 311 312 312 313 313 313 313 314 314 314 314 314 315 315 315 316 316
307 307 307 307 307 307 307 307 307 307 307 307 307 306 307 307 307 307 307 307 307 308 308 309 309 309 310 310 310 311 311 311 311 312 312 312 312 312 312 313 313 313
307 307 307 306 306 306 306 306 307 306 306 306 306 306 306 306 306 306 306 306 306 306 306 307 307 307 308 308 308 309 309 309 310 310 310 310 310 310 310 311 311 311
306 306 307 306 306 306 306 306 306 306 306 306 306 305 305 305 305 305 305 305 305 305 305 305 306 306 306 306 306 307 307 307 308 308 308 308 308 308 309 309 309 309
306 306 306 306 306 306 306 306 306 306 306 306 306 305 305 305 305 304 304 304 304 304 304 304 304 304 304 304 305 305 305 305 305 305 305 306 306 306 307 307 308 308
306 306 306 305 305 305 306 306 305 305 306 306 305 305 305 305 304 304 304 304 303 303 303 303 303 303 303 303 303 303 303 303 303 303 303 304 304 304 305 305 306 306
305 305 305 305 305 305 305 305 305 305 305 305 305 305 305 305 304 304 304 304 303 303 303 302 302 302 302 302 302 302 302 302 302 302 302 302 303 303 303 303 304 304
304 304 304 304 304 304 304 304 304 304 304 304 304 304 304 304 304 303 303 303 303 303 302 302 302 302 301 301 301 301 301 301 301 301 301 301 301 302 302 302 302 302
303 303 303 303 302 303 303 303 303 303 303 303 303 303 303 303 303 303 302 302 302 302 302 302 302 302 301 301 300 300 300 300 300 300 300 300 299 300 300 300 300 301
301 301 301 301 301 301 301 301 301 301 301 301 301 301 301 301 302 302 301 301 301 301 301 301 301 301 301 300 300 299 299 298 298 299 298 298 298 298 298 298 299 299
300 300 300 300 300 300 300 300 300 300 300 300 300 300 300 300 300 300 300 300 300 300 300 300 300 300 300 300 299 299 298 297 297 297 297 297 297 297 297 297 297 298
299 299 299 299 299 298 299 299 299 299 299 299 299 299 299 299 299 299 298 298 298 298 298 298 298 299 299 298 298 298 298 297 297 297 297 297 297 297 296 296 297 297
298 298 298 298 297 297 297 297 297 298 298 298 299 299 299 299 299 299 298 298 298 297 297 297 297 297 297 297 297 297 297 297 297 296 296 296 296 296 296 296 296 296
297 296 296 296 296 296 296 297 297 297 298 298 298 298 298 298 298 299 298 298 298 297 297 297 297 297 297 296 296 296 296 296 296 296 296 296 295 295 295 296 296 296
295 295 295 295 295 295 295 295 296 296 296 297 297 298 298 298 298 298 298 298 298 297 297 296 297 297 296 296 295 295 295 295 294 295 295 295 295 295 295 295 295 295
293 293 293 293 293 294 294 294 294 294 295 295 296 297 297 297 298 298 298 298 298 298 297 297 298 298 297 296 295 294 294 294 293 293 293 294 294 294 294 294 294 295
292 292 292 292 292 292 292 292 292 293 293 294 294 295 295 296 296 297 297 298 298 298 298 298 299 298 297 297 295 295 294 293 292 292 293 293 293 293 294 294 294 294
291 291 291 291 291 291 291 291 291 292 292 292 293 293 294 294 295 296 296 297 298 298 298 298 299 298 297 296 295 294 294 293 292 292 292 292 292 292 293 293 293 294
291 291 291 291 291 291 291 291 291 291 291 292 292 292 293 293 294 294 295 296 296 296 296 297 298 298 297 296 294 293 293 292 291 291 291 291 291 292 292 292 293 293
290 290 290 290 290 290 291 291 291 291 291 291 291 292 292 292 293 293 294 294 295 295 295 295 297 297 296 296 294 293 292 292 291 290 290 290 291 291 291 291 292 292
290 290 290 290 290 290 290 290 290 291 291 291 291 291 292 292 292 292 293 293 294 295 294 294 296 297 296 296 295 293 292 292 291 290 289 290 290 290 291 291 291 291
289 289 289 289 289 289 290 290 290 290 290 290 291 291 291 292 292 292 292 292 293 294 295 294 295 297 297 296 295 293 291 291 290 289 289 289 290 290 290 291 291 291
289 289 289 289 289 289 289 289 289 290 290 290 290 290 291 291 291 291 292 292 292 293 294 294 295 296 297 296 294 293 292 290 289 289 288 289 289 289 290 290 290 290
Wind_Speed
2 4 5 6 7 8 8 9 9 10 11 11 12 13 13 14 14 13 13 14 15 17 19 19 19 20 20 21 21 22 24 26 28 29 29 31 33 33 35 38 38 38
1 2 3 3 4 5 6 7 8 9 11 11 12 13 14 15 16 15 15 16 16 16 17 17 18 18 19 19 19 21 22 24 26 27 28 29 31 33 35 37 36 36
4 3 2 2 2 2 3 4 5 7 8 10 10 12 13 15 15 15 15 16 17 18 17 17 18 18 19 19 19 20 22 23 24 25 26 28 29 32 35 35 36 35
8 7 6 5 5 4 4 4 4 5 6 8 9 10 11 12 13 14 15 15 16 17 18 18 18 18 18 19 19 20 22 23 25 25 26 28 29 31 33 32 34 35
12 11 10 9 9 8 8 8 8 8 9 9 9 9 10 11 12 12 13 14 15 16 17 17 18 18 17 18 18 20 23 25 26 25 26 29 29 30 31 31 33 35
14 14 13 13 12 12 12 12 12 12 11 12 11 11 11 11 12 12 12 13 14 15 16 17 18 18 18 18 20 22 24 26 26 25 26 28 29 29 30 31 33 35
17 16 16 15 15 15 15 15 15 14 14 14 13 13 13 12 12 12 12 13 14 15 15 16 17 17 17 17 19 22 23 24 26 26 27 29 29 30 30 30 33 35
17 17 16 16 16 16 17 17 17 16 16 16 16 15 15 15 14 14 13 14 14 15 15 16 16 17 17 18 19 22 23 24 25 25 26 28 28 30 31 31 33 35
16 16 16 16 17 17 18 18 17 17 17 17 18 17 17 17 17 17 16 16 16 16 16 17 17 17 18 19 21 23 24 25 25 24 24 25 27 29 30 31 32 34
16 16 16 17 18 18 18 18 17 18 18 18 18 18 18 18 19 19 19 19 19 19 19 19 19 19 19 20 21 22 24 25 25 24 24 25 26 27 28 30 31 34
17 17 18 18 19 18 18 18 18 18 17 18 18 18 18 18 18 19 20 20 21 21 21 21 21 21 21 22 22 22 23 24 24 24 25 25 26 26 27 30 32 34
18 18 19 19 19 19 19 19 19 19 18 19 19 19 19 18 18 19 19 20 20 21 21 22 22 23 24 24 24 23 22 23 23 25 26 26 27 27 28 31 32 34
19 19 19 20 20 20 21 21 20 20 20 20 20 20 20 19 19 19 19 19 20 20 20 21 22 23 24 25 25 25 23 23 25 26 27 27 27 28 28 30 32 34
19 19 20 21 21 22 23 23 23 23 23 23 23 23 22 21 21 21 20 20 20 19 19 20 21 22 23 24 25 26 25 25 26 27 28 29 29 29 29 30 32 33
19 20 20 21 22 23 24 25 25 25 25 26 26 26 26 25 25 25 25 24 24 23 22 21 21 21 21 21 23 25 27 28 28 26 27 28 30 31 32 31 32 33
19 20 20 21 22 23 24 25 25 26 26 27 27 27 28 28 28 29 29 29 28 28 28 27 26 25 23 22 21 22 25 28 29 27 27 28 30 31 34 34 33 33
20 21 22 23 23 24 25 26 26 27 27 28 28 29 29 30 31 31 31 31 31 31 31 30 30 30 28 26 25 23 23 26 28 29 27 28 29 31 33 34 33 33
22 23 24 25 25 26 27 27 27 28 29 30 31 31 32 32 33 33 33 33 33 33 33 33 33 33 32 31 30 28 25 25 28 28 27 27 28 29 30 31 32 34
22 23 24 25 26 27 28 29 29 30 31 32 33 33 33 34 34 35 35 35 35 35 35 36 36 35 34 33 32 31 29 27 28 28 28 29 29 29 30 30 30 33
23 24 25 26 27 28 29 30 31 32 32 33 34 34 34 35 35 36 36 36 36 36 37 38 37 36 35 34 33 32 30 28 28 29 29 31 31 30 30 31 31 32
25 26 27 29 30 31 32 32 32 33 34 34 35 35 35 36 36 37 37 37 37 37 38 39 39 36 35 34 32 31 29 28 29 30 30 31 31 31 30 31 31 31
28 29 30 31 32 32 33 34 34 35 35 35 36 36 37 37 38 38 39 39 39 38 38 40 41 38 35 35 32 29 28 28 29 30 30 30 31 30 29 29 29 29
29 30 31 32 33 33 34 35 35 36 36 36 37 38 39 39 40 41 41 41 41 40 38 40 42 40 37 36 33 28 26 28 29 31 31 30 30 30 27 26 27 27
28 29 30 31 32 33 34 35 36 36 36 36 37 39 40 41 41 42 43 43 42 42 39 39 43 43 39 38 36 30 25 26 29 31 30 29 29 29 27 25 26 28
25 27 28 30 31 33 34 35 36 36 37 37 38 39 41 42 42 43 45 45 43 43 41 40 43 44 41 38 37 32 26 25 27 28 27 28 30 28 26 26 25 27
24 26 27 29 31 32 34 34 35 36 37 38 38 39 40 42 42 43 45 46 46 44 43 42 42 43 41 38 36 34 28 24 25 26 25 27 29 26 25 26 26 25
Wind_Direction
259 271 278 284 288 292 294 292 289 287 285 283 283 283 283 284 284 282 281 279 277 277 277 276 274 271 270 268 266 263 260 258 258 258 258 258 259 257 253 254 252 250
13 320 307 307 310 312 310 307 304 300 298 296 295 295 294 295 295 292 289 287 282 279 278 277 274 273 272 270 269 267 264 262 260 260 259 258 259 259 258 258 256 253
77 67 48 26 15 353 332 323 315 308 307 308 306 305 303 301 301 299 296 293 289 285 282 279 277 275 273 271 271 269 266 265 264 263 264 263 261 261 262 261 260 258
81 76 69 59 54 47 37 28 -0 338 329 325 322 315 309 305 304 303 300 297 293 289 285 283 280 278 276 274 271 270 268 268 268 267 267 266 265 264 265 264 264 263
78 73 69 61 56 52 45 41 30 16 5 357 351 339 328 323 318 313 309 304 299 294 291 288 285 282 278 276 273 272 271 271 271 270 269 269 267 265 265 265 265 264
73 68 65 60 55 52 48 44 37 28 20 14 7 359 351 346 339 332 324 317 311 305 301 296 293 289 284 281 278 276 275 275 275 273 271 271 271 269 269 267 265 264
68 64 61 58 54 51 48 44 39 32 27 21 17 10 4 358 353 347 338 331 325 319 313 308 302 297 292 285 280 280 280 279 278 277 274 273 273 272 271 269 267 266
65 61 58 55 52 49 46 42 37 32 28 23 20 15 10 5 1 355 349 342 335 329 323 318 311 305 300 294 288 287 286 285 283 280 277 275 274 273 272 270 269 268
63 59 55 51 48 45 42 38 35 30 26 23 20 16 12 9 5 1 357 351 345 341 335 327 322 316 308 302 298 295 292 290 288 282 278 277 275 274 274 273 271 269
61 56 52 48 45 41 38 35 31 27 23 21 18 14 11 8 5 2 360 356 352 348 343 337 331 325 319 312 307 302 298 295 292 286 280 278 276 275 276 275 273 271
55 51 47 44 41 38 35 32 29 26 22 20 17 14 10 8 5 2 359 357 354 350 345 342 337 331 325 320 313 308 302 298 295 290 285 281 279 277 276 276 275 273
47 43 40 37 34 32 29 27 25 22 19 17 15 12 9 8 6 3 360 356 353 350 346 342 339 335 330 326 321 314 307 300 296 294 291 287 284 281 280 279 277 275
40 36 34 30 27 25 22 20 18 16 14 12 9 8 6 4 3 0 358 356 352 349 347 343 340 337 332 328 325 318 309 303 300 298 296 292 289 286 284 282 280 277
34 30 27 23 20 17 15 13 11 8 7 5 4 3 1 359 357 356 353 352 350 347 346 343 340 338 334 328 324 319 312 306 303 301 299 296 294 291 287 285 283 280
29 24 21 18 14 12 10 7 5 3 1 -0 359 357 356 355 353 352 350 348 347 345 343 342 340 339 336 329 322 317 313 309 304 300 298 297 296 294 292 288 286 284
25 21 17 14 11 9 7 4 1 360 357 356 355 353 352 352 350 350 349 347 345 342 341 340 339 339 338 333 326 319 312 308 304 299 297 296 294 293 293 291 289 287
20 16 12 10 7 4 3 1 358 357 354 352 352 350 349 348 347 347 346 344 342 340 339 337 337 338 339 336 332 327 317 309 304 300 296 294 292 291 291 291 291 289
13 10 7 4 2 359 357 356 354 353 351 349 347 347 346 344 344 343 341 341 339 337 336 334 334 336 337 335 333 331 326 316 307 301 296 293 291 289 288 289 290 290
8 5 2 358 356 354 352 351 350 348 347 345 343 342 341 340 339 338 336 336 335 333 331 330 331 333 334 333 332 329 327 320 309 301 296 293 291 290 288 288 288 290
2 359 357 353 351 350 348 347 346 344 343 341 338 338 336 335 334 332 331 331 329 328 326 324 325 328 330 330 330 328 326 320 311 304 298 294 292 290 288 288 288 288
359 356 354 351 348 347 345 344 342 341 339 338 335 334 333 331 330 328 327 326 325 324 322 320 321 324 326 327 328 327 325 318 311 305 300 295 293 292 289 289 288 287
355 352 350 348 346 344 342 341 340 338 337 336 333 331 330 328 327 326 324 323 323 322 320 318 318 320 323 324 325 326 323 316 310 306 301 296 295 293 291 289 287 286
351 348 346 344 342 341 339 338 337 336 335 334 332 329 328 327 325 323 322 321 320 320 319 317 317 319 321 321 323 325 322 315 310 306 302 299 297 295 292 288 286 285
345 342 340 338 337 336 335 334 333 332 331 330 329 327 325 324 323 321 319 318 318 318 317 315 315 317 319 319 320 323 321 314 309 307 302 299 298 298 295 291 288 288
338 335 334 333 332 331 330 329 328 327 326 325 325 323 321 320 319 318 316 315 314 315 315 313 312 314 316 316 317 318 318 313 308 304 299 298 299 298 296 294 290 290
330 329 329 329 328 327 326 325 324 323 322 321 320 320 318 316 315 315 313 311 311 312 312 311 310 310 312 313 313 314 314 312 307 302 297 297 298 296 294 295 293 290